Temperature
15 15 15 15 15 15 15 15 15 14 14 14 14 14 14 14 14 14 14 14 14 14 14 14 14 14 14 13 13 13 13 13 13 12 12 12 12 12 12 12 12 11 11
14 14 14 15 15 14 14 15 14 14 14 14 14 14 14 14 14 13 14 14 14 14 14 14 14 13 13 13 13 13 12 12 12 12 12 12 12 11 11 11 11 11 11
14 14 14 14 14 14 14 14 14 14 14 14 14 14 14 14 14 13 13 13 14 14 14 13 13 13 13 13 12 12 12 12 12 11 11 11 11 11 11 11 11 10 10
14 14 14 14 14 14 14 14 14 14 14 14 14 14 14 14 14 14 13 13 13 13 13 13 13 13 12 12 12 12 12 11 11 11 11 11 11 10 10 10 10 10 10
14 14 14 14 14 14 14 14 14 14 14 14 14 14 13 13 14 14 14 13 13 13 13 13 13 12 12 12 12 11 11 11 11 11 11 10 10 10 10 10 9 9 9
14 14 14 14 14 14 14 14 14 14 13 13 13 13 13 14 14 14 14 14 13 13 13 13 12 12 12 12 12 11 11 11 11 11 10 10 10 10 10 9 9 9 9
14 14 14 14 14 14 14 14 13 13 13 13 13 13 13 13 14 14 14 13 13 13 13 12 12 12 12 12 11 11 11 11 11 10 10 10 10 9 9 9 9 9 8
14 14 14 14 14 14 14 13 13 13 13 13 12 12 12 13 13 13 13 13 13 13 12 12 12 12 11 11 11 11 11 11 10 10 10 10 9 9 9 9 9 8 8
14 14 14 14 14 14 13 13 13 13 13 13 12 12 12 12 13 13 13 12 12 12 12 12 11 11 11 11 10 10 10 10 10 10 9 9 9 9 9 8 8 8 8
14 14 14 14 14 14 13 13 13 13 12 12 12 12 12 12 12 12 12 12 12 11 11 11 11 11 10 10 10 10 10 10 9 9 9 9 9 9 8 8 8 8 8
14 14 14 14 14 13 13 13 13 13 12 12 12 12 11 11 11 11 11 11 11 11 11 11 10 10 10 10 9 9 9 9 9 9 8 8 8 8 8 8 8 7 7
14 14 14 14 13 13 13 13 13 12 12 12 12 11 11 11 11 11 11 11 10 10 10 10 10 9 9 9 9 9 8 8 8 8 8 8 8 8 8 8 7 7 7
13 13 13 13 13 13 13 12 12 12 12 12 11 11 11 11 10 10 10 10 10 9 9 9 9 9 9 9 8 8 8 8 8 7 7 7 7 7 7 7 7 7 6
13 13 13 12 12 12 12 12 12 11 11 11 10 10 10 10 10 10 9 9 9 9 9 9 8 8 8 8 8 7 7 7 7 7 7 6 6 6 6 6 6 6 6
12 12 12 12 12 12 11 11 11 11 11 10 10 10 10 9 9 9 9 8 8 8 8 8 8 8 7 7 7 7 7 6 6 6 6 6 6 6 5 5 5 5 5
12 12 12 11 11 11 10 10 10 10 10 10 9 9 9 9 9 8 8 8 7 7 7 7 7 7 7 6 6 6 6 6 5 5 5 5 5 5 5 5 5 5 4
11 11 10 10 10 10 10 10 9 9 9 9 8 8 8 8 8 8 7 7 7 7 7 6 6 6 6 5 5 5 5 5 5 5 5 4 4 4 4 4 4 4 4
10 10 10 9 9 9 9 9 9 9 8 8 8 8 8 7 7 7 7 7 6 6 6 6 5 5 5 5 4 4 4 4 4 4 4 4 3 3 3 3 3 3 3
9 9 9 9 9 8 8 8 8 8 7 7 7 7 7 7 6 6 6 6 6 6 5 5 5 4 4 4 4 4 3 3 3 3 3 3 3 3 3 3 2 2 2
9 8 8 8 8 7 7 7 7 6 6 6 6 6 6 6 6 5 5 5 5 5 5 4 4 4 4 3 3 3 3 3 3 3 2 2 2 2 2 2 2 2 2
7 7 7 7 7 7 6 6 6 6 5 5 5 5 5 5 5 5 4 4 4 4 4 4 3 3 3 3 2 2 2 2 2 2 2 2 2 2 1 1 1 1 1
7 6 6 6 6 6 6 5 5 5 5 5 4 4 4 4 4 4 4 4 4 3 3 3 3 2 2 2 2 1 1 1 1 1 1 1 1 1 1 1 1 0 0
6 6 5 5 5 5 5 5 4 4 4 4 4 3 3 3 3 3 3 3 3 2 2 2 2 2 1 1 1 1 0 0 0 0 0 0 0 0 -0 -0 -0 -0 -0
5 5 4 4 4 4 4 4 3 3 3 3 3 3 2 2 2 2 2 2 2 2 1 1 1 1 1 0 0 -0 -0 -0 -0 -1 -1 -1 -1 -1 -1 -1 -1 -1 -1
4 4 4 3 3 3 3 3 3 2 2 2 2 2 2 2 1 1 1 1 1 1 1 1 1 0 0 -0 -0 -1 -1 -1 -1 -1 -2 -2 -2 -1 -1 -1 -1 -1 -2
4 3 3 3 2 2 2 2 2 2 2 2 1 1 1 1 1 1 1 1 1 0 0 0 0 -0 -0 -1 -1 -1 -1 -2 -2 -2 -2 -3 -3 -3 -2 -2 -2 -2 -2
Wind_Speed
5 7 8 10 10 10 10 8 8 6 5 6 5 3 1 2 2 4 8 11 10 8 7 7 6 6 6 5 5 4 4 4 3 3 2 2 1 1 1 2 3 4 4
7 6 5 6 6 6 8 7 6 3 3 3 2 2 3 5 5 6 8 11 12 12 11 10 9 9 8 8 7 7 7 6 6 6 5 4 4 3 2 1 1 1 2
8 6 3 4 6 6 6 5 4 2 2 1 1 3 5 5 4 5 7 10 12 14 14 13 12 11 10 10 9 9 9 9 9 8 8 7 7 6 5 4 3 3 2
10 7 3 4 7 7 5 3 2 2 2 2 3 3 3 4 5 7 8 9 10 11 14 15 14 13 12 11 11 10 10 10 11 11 10 9 9 9 8 7 7 6 5
11 9 5 5 7 5 3 3 2 2 3 3 3 3 3 3 5 7 7 9 9 10 11 13 15 15 13 12 12 12 11 11 12 13 13 13 11 11 11 10 10 9 8
10 9 6 6 6 3 3 3 4 3 3 3 3 4 4 5 5 5 7 8 9 9 9 9 11 13 14 13 12 12 12 12 11 12 13 13 13 13 13 13 12 11 10
9 8 4 4 4 4 4 5 4 4 4 2 2 3 5 7 8 7 6 5 5 7 8 7 7 7 8 12 12 12 12 12 12 12 13 13 14 14 14 15 15 14 13
8 7 5 3 3 4 5 5 4 3 3 3 3 2 4 4 5 6 4 4 3 3 4 5 4 4 4 5 7 10 11 11 12 12 12 13 13 14 14 15 15 16 15
7 6 6 4 3 4 4 5 5 5 4 4 4 4 3 4 3 1 2 2 2 1 1 2 2 2 2 2 2 4 7 8 10 11 12 11 11 13 13 14 14 13 13
6 6 6 5 4 4 4 4 4 3 4 4 4 5 5 3 2 3 2 1 1 1 1 1 1 1 1 1 1 2 4 6 7 9 10 10 10 10 10 11 12 10 9
5 5 4 3 3 3 4 4 3 4 4 5 4 3 4 4 4 4 4 3 1 1 1 1 1 1 1 0 1 2 3 4 6 7 8 8 8 8 8 8 8 8 7
3 4 4 3 3 2 3 3 3 4 4 5 4 3 3 3 4 4 6 5 4 2 1 1 1 1 2 2 3 3 3 4 4 5 6 7 6 6 6 6 4 3 3
3 3 3 3 2 2 2 2 2 3 3 4 4 4 3 4 2 3 4 4 4 2 2 1 1 2 3 4 4 3 3 3 4 4 4 4 4 3 3 3 2 1 1
3 3 3 2 2 1 1 1 2 3 2 3 4 3 2 2 2 2 3 3 4 3 2 2 2 3 3 4 3 3 4 4 4 4 4 4 5 4 4 3 3 2 2
3 3 2 2 2 1 1 2 2 3 3 3 3 2 2 1 1 1 2 2 3 4 4 3 2 2 3 4 4 3 4 4 3 3 4 5 5 5 4 3 3 3 2
3 2 2 2 1 1 1 1 2 2 2 2 1 2 2 1 1 1 1 1 2 3 3 1 2 1 2 3 3 4 4 4 4 4 4 4 4 3 3 2 2 2 2
3 2 2 2 1 1 1 1 1 1 2 1 1 1 1 1 1 0 1 1 1 1 3 1 2 1 2 1 2 3 3 3 3 4 4 4 3 2 2 2 2 2 2
3 3 2 2 1 1 1 1 1 1 1 1 1 2 1 1 1 0 0 1 1 1 2 2 1 1 1 1 1 1 2 2 2 3 4 3 3 2 2 2 2 2 2
3 3 2 2 2 2 2 2 2 2 2 2 2 2 1 2 1 1 1 0 0 0 1 2 2 1 1 1 1 1 1 1 2 2 3 3 3 3 3 3 3 3 3
3 3 3 3 3 3 3 3 3 3 3 3 3 3 2 2 1 1 1 1 1 1 1 2 2 1 1 1 1 0 1 1 2 1 2 4 4 5 4 4 3 3 3
3 3 3 3 3 2 2 2 2 3 4 4 3 3 4 4 4 3 2 2 1 1 2 2 1 1 1 1 1 0 0 1 1 1 2 3 4 4 5 4 4 3 4
3 3 3 3 2 2 3 3 3 3 3 3 3 3 3 3 4 4 4 4 3 2 2 2 1 1 1 1 1 1 1 1 2 2 2 3 2 2 4 4 4 4 5
3 3 3 3 3 3 4 3 4 3 3 3 3 2 2 3 3 2 4 5 5 5 3 2 2 1 1 1 2 1 0 0 2 2 1 3 2 2 3 3 5 6 6
3 3 3 3 3 3 4 4 4 2 2 2 2 2 2 2 2 2 3 3 2 2 3 2 2 1 2 2 2 2 2 1 2 2 1 2 2 2 3 6 6 5 5
3 3 3 3 3 3 5 5 4 2 2 2 2 2 2 2 3 3 2 2 1 1 3 3 3 2 1 1 1 2 1 1 1 2 0 1 2 2 3 3 4 3 4
4 3 3 3 3 3 5 5 4 2 2 2 1 1 2 2 3 3 2 2 1 1 1 1 1 1 0 1 0 2 3 2 1 2 1 1 1 2 3 3 2 5 6
Wind_Direction
161 162 166 169 182 185 173 197 222 206 194 211 222 211 183 226 195 169 172 180 187 197 207 216 219 218 217 217 215 213 208 203 203 203 196 185 164 88 62 50 45 44 43
166 159 160 165 187 175 176 202 227 191 196 222 233 218 227 232 225 212 191 195 201 207 213 220 227 229 230 230 227 225 222 218 219 221 222 223 226 231 236 251 308 353 13
162 158 164 166 185 185 185 204 227 197 214 204 249 260 253 247 237 226 216 207 207 213 217 222 229 233 235 237 237 235 230 226 224 226 228 231 233 234 238 242 252 266 286
168 165 174 179 188 188 190 191 199 194 222 216 243 253 244 237 244 249 243 225 210 210 216 222 228 233 236 239 242 243 239 234 229 228 229 231 234 235 237 240 244 250 258
173 171 183 193 197 188 185 191 199 204 222 228 241 253 255 248 239 240 243 241 227 212 205 214 223 229 233 238 244 248 247 242 234 231 232 232 233 236 238 239 241 244 249
178 176 181 196 196 176 186 193 202 220 230 234 250 256 251 249 240 229 230 235 235 221 211 210 214 224 229 234 242 249 253 251 244 237 236 235 235 237 239 241 241 242 245
176 174 175 189 189 182 191 200 197 214 224 229 258 279 266 245 237 228 217 217 224 218 207 206 203 207 218 230 239 248 255 258 254 249 244 241 239 240 241 242 242 241 243
177 179 176 181 183 189 198 206 201 201 212 198 195 241 288 294 258 225 195 194 207 205 187 194 200 213 208 207 234 245 252 258 260 258 254 250 246 244 244 245 247 245 242
183 181 186 183 185 188 200 206 201 195 213 220 205 203 225 250 308 298 208 187 187 174 175 166 179 210 220 215 239 253 258 259 264 266 263 260 256 252 249 248 247 247 240
181 184 189 193 194 196 206 214 209 206 205 222 228 228 228 222 242 288 295 245 183 174 170 144 146 193 237 257 278 292 288 280 278 277 275 273 270 268 261 255 251 242 236
173 175 185 192 202 203 210 213 214 216 212 217 218 220 238 248 229 232 257 256 250 226 191 147 128 116 117 94 336 331 325 311 295 291 287 284 281 283 281 271 256 243 237
168 167 183 190 199 202 204 210 224 227 226 229 228 218 211 217 218 224 240 240 236 220 187 106 98 91 79 67 46 17 6 346 323 309 303 300 294 296 302 303 273 239 237
173 182 181 190 198 204 208 206 217 238 235 233 232 233 233 236 221 224 241 249 244 217 177 139 84 75 72 72 44 25 25 9 350 332 325 334 340 336 335 336 344 342 260
160 157 169 177 175 177 206 210 219 231 236 235 239 240 246 247 238 225 232 241 254 238 203 188 84 71 71 76 45 48 55 35 18 8 8 17 28 36 41 39 28 11 346
110 118 138 146 151 169 194 199 213 226 225 224 224 222 230 253 253 247 240 226 232 250 238 184 145 80 74 72 49 53 64 49 34 33 34 35 42 45 43 35 25 14 357
109 125 134 139 146 174 191 200 210 214 203 212 210 198 215 226 234 254 246 244 227 234 236 145 119 103 88 78 44 47 59 53 44 38 35 34 36 43 38 21 7 1 341
109 108 107 106 119 166 186 190 203 187 187 182 174 173 183 147 169 206 218 219 230 221 228 149 98 104 109 93 47 46 50 53 44 32 25 18 22 29 17 5 15 15 1
92 91 93 109 120 95 68 127 137 123 149 164 164 155 154 125 125 94 162 186 209 214 193 194 143 126 105 103 71 46 34 39 41 26 15 11 7 357 344 327 319 311 306
96 92 90 98 91 76 65 66 87 97 98 94 91 103 103 117 121 104 110 112 256 220 127 152 139 113 104 111 58 11 10 11 3 354 352 351 336 327 318 309 299 292 285
101 97 91 85 79 71 71 73 84 94 93 83 74 75 71 89 110 132 117 84 60 83 95 112 119 121 121 125 112 57 328 323 320 341 355 339 327 318 308 303 298 287 284
104 102 97 91 87 81 82 91 102 110 109 100 86 80 73 75 72 76 85 75 79 102 110 117 128 114 136 127 203 185 345 322 317 30 2 326 314 305 300 292 288 275 281
116 111 108 105 100 98 105 113 115 113 122 127 122 110 102 84 83 78 77 76 82 108 133 138 153 170 190 172 125 97 68 40 304 335 5 309 291 282 278 270 273 282 290
126 120 120 118 114 114 126 126 122 121 129 131 132 127 119 111 91 81 75 69 62 62 79 133 150 182 164 147 122 97 93 230 241 260 351 295 302 292 287 289 296 293 292
139 140 136 136 132 136 141 139 134 116 116 122 126 131 133 127 115 103 90 71 59 45 53 66 106 98 96 101 132 161 185 275 288 276 199 254 298 302 311 309 296 285 288
148 150 147 155 154 154 156 154 149 133 137 141 130 126 129 144 161 143 116 103 71 40 65 81 87 87 89 101 113 98 90 50 310 292 330 219 306 323 310 301 298 288 299
161 158 163 174 173 171 177 178 175 163 165 167 160 170 181 176 181 173 144 152 167 187 97 55 25 2 334 204 175 154 168 184 229 273 306 42 343 0 324 304 311 309 300
Height
1563 1565 1566 1568 1569 1571 1572 1574 1575 1576 1577 1578 1579 1579 1580 1580 1580 1579 1579 1578 1578 1578 1578 1577 1577 1576 1576 1575 1575 1574 1574 1573 1573 1573 1572 1572 1571 1571 1570 1569 1569 1568 1568
1563 1564 1566 1567 1569 1570 1571 1573 1574 1575 1576 1577 1577 1578 1578 1578 1578 1578 1577 1577 1576 1576 1576 1575 1575 1574 1574 1573 1573 1573 1572 1572 1571 1571 1571 1570 1570 1569 1569 1568 1568 1567 1567
1561 1563 1565 1566 1568 1569 1570 1571 1573 1573 1574 1575 1575 1575 1575 1576 1576 1575 1575 1574 1574 1574 1573 1573 1573 1572 1571 1571 1570 1570 1570 1569 1569 1569 1568 1568 1568 1567 1567 1566 1566 1565 1565
1559 1561 1562 1564 1566 1567 1568 1569 1570 1571 1572 1572 1572 1572 1573 1573 1573 1573 1572 1572 1571 1571 1570 1570 1570 1569 1569 1568 1568 1567 1567 1566 1566 1566 1566 1565 1565 1565 1564 1564 1564 1563 1563
1557 1558 1560 1562 1563 1565 1566 1567 1568 1568 1569 1569 1569 1569 1569 1569 1569 1569 1569 1569 1568 1568 1567 1567 1566 1566 1566 1565 1564 1564 1564 1563 1563 1563 1562 1562 1562 1562 1561 1561 1561 1561 1560
1554 1556 1557 1559 1560 1562 1563 1564 1565 1565 1566 1566 1566 1566 1566 1565 1565 1565 1565 1565 1564 1564 1564 1563 1562 1562 1562 1561 1561 1561 1560 1560 1559 1559 1559 1558 1558 1558 1558 1558 1557 1557 1557
1551 1553 1554 1556 1557 1558 1559 1561 1561 1562 1562 1563 1563 1562 1561 1561 1561 1560 1560 1560 1560 1560 1560 1559 1558 1558 1558 1557 1557 1557 1557 1556 1556 1555 1555 1554 1554 1554 1554 1553 1553 1553 1553
1548 1549 1551 1552 1553 1555 1556 1557 1558 1558 1558 1559 1560 1559 1558 1557 1556 1556 1556 1556 1556 1556 1556 1556 1555 1554 1554 1553 1553 1553 1552 1552 1551 1551 1550 1550 1549 1549 1549 1549 1549 1549 1549
1544 1546 1547 1548 1549 1551 1552 1553 1554 1554 1554 1555 1556 1557 1556 1554 1553 1553 1553 1552 1552 1552 1552 1551 1551 1550 1550 1549 1548 1548 1547 1547 1546 1546 1545 1545 1544 1544 1544 1544 1544 1544 1544
1540 1541 1543 1544 1545 1546 1547 1548 1549 1550 1550 1550 1551 1551 1552 1551 1551 1549 1549 1549 1548 1548 1547 1547 1547 1546 1545 1544 1544 1543 1542 1542 1542 1541 1541 1540 1540 1539 1539 1539 1539 1539 1540
1535 1537 1539 1540 1540 1541 1542 1543 1544 1545 1545 1545 1546 1546 1546 1546 1546 1546 1544 1543 1543 1543 1543 1542 1541 1541 1540 1539 1539 1538 1537 1537 1536 1536 1535 1535 1535 1534 1534 1534 1534 1534 1535
1531 1532 1534 1535 1535 1536 1537 1537 1538 1539 1539 1539 1540 1540 1540 1540 1540 1540 1539 1538 1537 1537 1537 1537 1536 1536 1535 1534 1533 1533 1532 1532 1531 1530 1530 1529 1529 1529 1529 1529 1529 1529 1530
1526 1527 1529 1529 1530 1531 1531 1532 1532 1532 1532 1533 1533 1533 1534 1534 1534 1534 1534 1532 1532 1532 1531 1531 1531 1531 1530 1529 1528 1528 1527 1526 1526 1525 1524 1524 1524 1524 1524 1524 1524 1524 1525
1521 1522 1523 1524 1525 1526 1526 1526 1526 1526 1526 1526 1526 1527 1527 1527 1528 1528 1528 1528 1526 1526 1525 1526 1525 1525 1525 1524 1523 1522 1522 1521 1520 1520 1519 1519 1519 1519 1519 1519 1519 1520 1520
1517 1518 1518 1519 1520 1520 1520 1520 1520 1520 1521 1520 1520 1521 1521 1521 1522 1522 1522 1522 1523 1520 1520 1520 1520 1520 1520 1519 1519 1518 1517 1516 1515 1515 1514 1514 1513 1514 1514 1514 1514 1515 1515
1512 1513 1513 1514 1515 1515 1515 1515 1515 1515 1515 1515 1515 1515 1515 1515 1515 1516 1516 1516 1516 1516 1515 1514 1515 1515 1515 1514 1514 1513 1512 1511 1511 1510 1509 1509 1509 1509 1509 1509 1509 1510 1510
1507 1508 1509 1509 1510 1510 1510 1510 1510 1510 1510 1510 1510 1510 1510 1510 1510 1510 1510 1510 1511 1511 1510 1510 1510 1510 1509 1509 1509 1508 1507 1507 1506 1505 1505 1504 1504 1504 1504 1504 1505 1505 1505
1502 1503 1504 1504 1505 1505 1505 1505 1505 1505 1505 1505 1505 1505 1505 1505 1505 1505 1505 1505 1505 1505 1506 1505 1505 1505 1505 1504 1504 1504 1503 1502 1502 1501 1501 1500 1500 1500 1500 1500 1500 1500 1500
1498 1498 1499 1500 1500 1500 1500 1500 1500 1500 1500 1500 1500 1500 1500 1500 1500 1500 1500 1500 1500 1500 1500 1500 1500 1500 1500 1500 1500 1499 1498 1498 1498 1497 1497 1496 1496 1496 1496 1496 1496 1496 1496
1494 1494 1495 1495 1495 1496 1496 1496 1496 1496 1496 1496 1496 1496 1496 1496 1496 1496 1495 1495 1496 1496 1496 1496 1496 1495 1495 1495 1495 1495 1494 1494 1494 1494 1493 1493 1493 1492 1492 1492 1491 1491 1491
1490 1490 1491 1491 1491 1491 1492 1492 1492 1492 1492 1492 1492 1492 1492 1492 1492 1491 1492 1491 1492 1491 1492 1492 1492 1491 1491 1491 1491 1491 1490 1490 1490 1490 1489 1489 1489 1489 1488 1488 1488 1487 1487
1486 1487 1487 1487 1487 1487 1487 1487 1488 1488 1488 1488 1488 1488 1488 1488 1488 1488 1488 1488 1488 1488 1488 1488 1488 1488 1488 1488 1488 1487 1487 1487 1486 1487 1486 1486 1485 1485 1484 1484 1484 1483 1483
1483 1483 1483 1483 1483 1483 1483 1484 1484 1484 1484 1484 1484 1484 1484 1484 1484 1485 1484 1484 1484 1484 1484 1485 1484 1484 1484 1484 1484 1484 1484 1484 1483 1483 1482 1481 1482 1481 1480 1480 1480 1479 1479
1479 1479 1480 1480 1480 1480 1480 1480 1481 1481 1481 1481 1481 1481 1481 1481 1481 1481 1481 1481 1481 1481 1481 1481 1481 1481 1482 1481 1481 1481 1481 1480 1480 1480 1479 1478 1477 1477 1477 1476 1476 1475 1475
1476 1476 1476 1476 1476 1477 1477 1477 1477 1478 1478 1478 1478 1478 1478 1478 1478 1478 1478 1478 1479 1479 1479 1478 1478 1478 1478 1478 1478 1478 1478 1477 1476 1476 1476 1475 1473 1473 1472 1472 1472 1471 1471
1472 1473 1473 1473 1473 1473 1474 1474 1474 1475 1475 1475 1475 1475 1476 1476 1476 1476 1476 1476 1476 1476 1476 1476 1476 1476 1475 1475 1475 1475 1474 1474 1473 1472 1472 1472 1470 1469 1468 1467 1468 1467 1467